| time (UTC) | temp F | wind direction | speed knots | gust knots | rain 1hr in | rain 24hr in | rain mn in | humidity % | barometer mb |
| 20260903025658 | 82 | 234 | 6.1 | 7.8 | 0.00 | 0.00 | 0.00 | 90 | |
| 20260903025154 | 82 | 229 | 2.6 | 4.3 | 0.00 | 0.00 | 0.00 | 90 | |
| 20260903024648 | 82 | 231 | 3.5 | 6.1 | 0.00 | 0.00 | 0.00 | 91 | |
| 20260903024147 | 82 | 220 | 5.2 | 7.8 | 0.00 | 0.00 | 0.00 | 90 | |
| 20260903023644 | 81 | 224 | 1.7 | 4.3 | 0.00 | 0.00 | 0.00 | 91 | |
| 20260903023144 | 81 | 231 | 2.6 | 4.3 | 0.00 | 0.00 | 0.00 | 91 | |
| 20260903022638 | 81 | 232 | 2.6 | 4.3 | 0.00 | 0.00 | 0.00 | 90 | |
| 20260903022137 | 81 | 228 | 2.6 | 3.5 | 0.00 | 0.00 | 0.00 | 90 | |
| 20260903021638 | 81 | 216 | 1.7 | 4.3 | 0.00 | 0.00 | 0.00 | 90 | |
| 20260903021132 | 82 | 230 | 1.7 | 1.7 | 0.00 | 0.00 | 0.00 | 90 | |
| 20260903020628 | 82 | 222 | 1.7 | 1.7 | 0.00 | 0.00 | 0.00 | 90 | |
| 20260903020128 | 82 | 232 | 0.9 | 3.5 | 0.00 | 0.00 | 0.00 | 89 | |
| 20260903015623 | 82 | 226 | 3.5 | 4.3 | 0.00 | 0.00 | 0.00 | 89 | |
| 20260903015119 | 82 | 229 | 2.6 | 3.5 | 0.00 | 0.00 | 0.00 | 89 | |
| 20260903014618 | 82 | 234 | 1.7 | 4.3 | 0.00 | 0.00 | 0.00 | 89 | |
| 20260903014118 | 82 | 218 | 2.6 | 3.5 | 0.00 | 0.00 | 0.00 | 89 | |
| 20260903013613 | 82 | 213 | 3.5 | 3.5 | 0.00 | 0.00 | 0.00 | 88 | |
| 20260903013107 | 82 | 230 | 1.7 | 3.5 | 0.00 | 0.00 | 0.00 | 88 | |
| 20260903012606 | 82 | 191 | 1.7 | 3.5 | 0.00 | 0.00 | 0.00 | 88 | |
| 20260903012106 | 82 | 226 | 3.5 | 4.3 | 0.00 | 0.00 | 0.00 | 88 | |
| 20260903011605 | 82 | 234 | 2.6 | 4.3 | 0.00 | 0.00 | 0.00 | 87 | |
| 20260903011105 | 82 | 225 | 1.7 | 3.5 | 0.00 | 0.00 | 0.00 | 87 | |
| 20260903010601 | 82 | 231 | 2.6 | 3.5 | 0.00 | 0.00 | 0.00 | 87 | |
| 20260903010059 | 82 | 235 | 1.7 | 3.5 | 0.00 | 0.00 | 0.00 | 88 | |
| 20260903005554 | 83 | 238 | 1.7 | 3.5 | 0.00 | 0.00 | 0.00 | 86 | |
| 20260903005049 | 83 | 237 | 1.7 | 3.5 | 0.00 | 0.00 | 0.00 | 86 | |
| 20260903004544 | 83 | 234 | 1.7 | 1.7 | 0.00 | 0.00 | 0.00 | 85 | |
| 20260903004040 | 83 | 233 | 1.7 | 1.7 | 0.00 | 0.00 | 0.00 | 85 | |
| 20260903003535 | 84 | 233 | 1.7 | 3.5 | 0.00 | 0.00 | 0.00 | 84 | |
| 20260903003030 | 84 | 222 | 2.6 | 3.5 | 0.00 | 0.00 | 0.00 | 83 | |
| 20260903002525 | 84 | 231 | 2.6 | 3.5 | 0.00 | 0.00 | 0.00 | 84 | |
| 20260903002019 | 85 | 228 | 1.7 | 1.7 | 0.00 | 0.00 | 0.00 | 83 | |
| 20260903001514 | 85 | 231 | 1.7 | 1.7 | 0.00 | 0.00 | 0.00 | 82 | |
| 20260903001013 | 85 | 218 | 1.7 | 3.5 | 0.00 | 0.00 | 0.00 | 81 | |
| 20260903000509 | 86 | 229 | 0.9 | 1.7 | 0.00 | 0.00 | 0.00 | 80 | |
| 20260903000008 | 86 | 231 | 1.7 | 4.3 | 0.00 | 0.00 | 0.00 | 81 | |
| 20260902235502 | 86 | 223 | 2.6 | 6.1 | 0.00 | 0.00 | 0.00 | 79 | |
| 20260902234957 | 86 | 236 | 2.6 | 7.8 | 0.00 | 0.00 | 0.00 | 79 | |
| 20260902234451 | 86 | 255 | 6.1 | 7.8 | 0.00 | 0.00 | 0.00 | 78 | |
| 20260902233950 | 87 | 236 | 1.7 | 3.5 | 0.00 | 0.00 | 0.00 | 79 | |
| 20260902233449 | 87 | 230 | 1.7 | 4.3 | 0.00 | 0.00 | 0.00 | 77 | |
| 20260902232944 | 87 | 226 | 5.2 | 6.1 | 0.00 | 0.00 | 0.00 | 76 | |
| 20260902232439 | 88 | 237 | 3.5 | 7.8 | 0.00 | 0.00 | 0.00 | 77 | |
| 20260902231938 | 88 | 231 | 2.6 | 4.3 | 0.00 | 0.00 | 0.00 | 76 | |
| 20260902231433 | 88 | 248 | 3.5 | 4.3 | 0.00 | 0.00 | 0.00 | 74 | |
| 20260902230928 | 89 | 242 | 3.5 | 7.8 | 0.00 | 0.00 | 0.00 | 73 | |
| 20260902230428 | 89 | 238 | 5.2 | 7.8 | 0.00 | 0.00 | 0.00 | 73 | |
| 20260902225922 | 89 | 231 | 4.3 | 6.1 | 0.00 | 0.00 | 0.00 | 71 | |
| 20260902225417 | 90 | 259 | 6.1 | 9.6 | 0.00 | 0.00 | 0.00 | 70 | |
| 20260902224916 | 90 | 207 | 6.1 | 9.6 | 0.00 | 0.00 | 0.00 | 71 | |
| 20260902224415 | 90 | 196 | 7.0 | 7.8 | 0.00 | 0.00 | 0.00 | 70 | |
| 20260902223913 | 90 | 220 | 10.4 | 13.0 | 0.00 | 0.00 | 0.00 | 69 | |
| 20260902223413 | 90 | 228 | 7.0 | 11.3 | 0.00 | 0.00 | 0.00 | 70 | |
| 20260902222908 | 90 | 240 | 7.8 | 9.6 | 0.00 | 0.00 | 0.00 | 69 | |
| 20260902222406 | 90 | 229 | 6.1 | 7.8 | 0.00 | 0.00 | 0.00 | 70 | |
| 20260902221905 | 91 | 232 | 6.1 | 9.6 | 0.00 | 0.00 | 0.00 | 69 | |
| 20260902221405 | 91 | 253 | 9.6 | 13.0 | 0.00 | 0.00 | 0.00 | 68 | |
| 20260902220900 | 91 | 220 | 7.8 | 9.6 | 0.00 | 0.00 | 0.00 | 68 | |
| 20260902220400 | 91 | 233 | 5.2 | 6.1 | 0.00 | 0.00 | 0.00 | 68 | |
| 20260902215855 | 91 | 258 | 8.7 | 11.3 | 0.00 | 0.00 | 0.00 | 66 | |
| 20260902215350 | 91 | 222 | 5.2 | 7.8 | 0.00 | 0.00 | 0.00 | 68 | |
| 20260902214846 | 91 | 247 | 8.7 | 11.3 | 0.00 | 0.00 | 0.00 | 67 | |
| 20260902214345 | 92 | 239 | 6.1 | 6.1 | 0.00 | 0.00 | 0.00 | 66 | |
| 20260902213840 | 92 | 222 | 6.1 | 7.8 | 0.00 | 0.00 | 0.00 | 67 | |
| 20260902213336 | 92 | 246 | 6.1 | 7.8 | 0.00 | 0.00 | 0.00 | 65 | |
| 20260902212834 | 92 | 257 | 6.1 | 9.6 | 0.00 | 0.00 | 0.00 | 65 | |
| 20260902212331 | 91 | 249 | 4.3 | 6.1 | 0.00 | 0.00 | 0.00 | 66 | |
| 20260902211827 | 92 | 284 | 6.1 | 7.8 | 0.00 | 0.00 | 0.00 | 65 | |
| 20260902211322 | 92 | 249 | 10.4 | 13.0 | 0.00 | 0.00 | 0.00 | 63 | |
| 20260902210818 | 92 | 229 | 9.6 | 15.6 | 0.00 | 0.00 | 0.00 | 63 | |
| 20260902210312 | 91 | 233 | 6.1 | 13.0 | 0.00 | 0.00 | 0.00 | 64 | |
| 20260902205810 | 91 | 235 | 7.8 | 13.0 | 0.00 | 0.00 | 0.00 | 63 | |
| 20260902205306 | 93 | 260 | 9.6 | 15.6 | 0.00 | 0.00 | 0.00 | 61 | |
| 20260902204800 | 93 | 275 | 6.1 | 7.8 | 0.00 | 0.00 | 0.00 | 65 | |
| 20260902204255 | 93 | 227 | 3.5 | 3.5 | 0.00 | 0.00 | 0.00 | 63 | |
| 20260902203751 | 93 | 205 | 6.1 | 7.8 | 0.00 | 0.00 | 0.00 | 63 | |
| 20260902203251 | 93 | 205 | 6.1 | 7.8 | 0.00 | 0.00 | 0.00 | 63 | |
| 20260902202745 | 93 | 241 | 3.5 | 6.1 | 0.00 | 0.00 | 0.00 | 62 | |
| 20260902202242 | 93 | 228 | 6.1 | 7.8 | 0.00 | 0.00 | 0.00 | 62 | |
| 20260902201738 | 93 | 234 | 6.1 | 7.8 | 0.00 | 0.00 | 0.00 | 62 | |
| 20260902201237 | 93 | 265 | 9.6 | 11.3 | 0.00 | 0.00 | 0.00 | 61 | |
| 20260902200733 | 92 | 227 | 7.0 | 9.6 | 0.00 | 0.00 | 0.00 | 62 | |
| 20260902200228 | 93 | 261 | 7.8 | 7.8 | 0.00 | 0.00 | 0.00 | 61 | |
| 20260902195724 | 93 | 264 | 7.0 | 13.0 | 0.00 | 0.00 | 0.00 | 61 | |
| 20260902195223 | 93 | 275 | 5.2 | 6.1 | 0.00 | 0.00 | 0.00 | 64 | |
| 20260902194723 | 93 | 229 | 4.3 | 7.8 | 0.00 | 0.00 | 0.00 | 62 | |
| 20260902194218 | 92 | 242 | 3.5 | 6.1 | 0.00 | 0.00 | 0.00 | 62 | |
| 20260902193713 | 92 | 238 | 6.1 | 9.6 | 0.00 | 0.00 | 0.00 | 62 | |
| 20260902193209 | 93 | 223 | 6.1 | 7.8 | 0.00 | 0.00 | 0.00 | 59 | |
| 20260902192707 | 93 | 255 | 8.7 | 9.6 | 0.00 | 0.00 | 0.00 | 59 | |
| 20260902192206 | 93 | 229 | 2.6 | 4.3 | 0.00 | 0.00 | 0.00 | 62 | |
| 20260902191701 | 93 | 226 | 7.8 | 11.3 | 0.00 | 0.00 | 0.00 | 61 | |
| 20260902191155 | 93 | 256 | 5.2 | 6.1 | 0.00 | 0.00 | 0.00 | 61 | |
| 20260902190651 | 93 | 228 | 7.0 | 7.8 | 0.00 | 0.00 | 0.00 | 60 | |
| 20260902190146 | 94 | 259 | 6.1 | 7.8 | 0.00 | 0.00 | 0.00 | 59 | |
| 20260902185641 | 93 | 231 | 7.8 | 9.6 | 0.00 | 0.00 | 0.00 | 60 | |
| 20260902185137 | 93 | 258 | 7.0 | 7.8 | 0.00 | 0.00 | 0.00 | 60 | |
| 20260902184632 | 93 | 246 | 9.6 | 11.3 | 0.00 | 0.00 | 0.00 | 58 | |
| 20260902184127 | 93 | 266 | 9.6 | 11.3 | 0.00 | 0.00 | 0.00 | 59 | |
| 20260902183623 | 93 | 223 | 8.7 | 15.6 | 0.00 | 0.00 | 0.00 | 58 | |
| 20260902183120 | 93 | 222 | 9.6 | 11.3 | 0.00 | 0.00 | 0.00 | 59 | |
| 20260902182615 | 93 | 235 | 14.8 | 15.6 | 0.00 | 0.00 | 0.00 | 60 | |
| 20260902182112 | 92 | 224 | 5.2 | 6.1 | 0.00 | 0.00 | 0.00 | 63 | |
| 20260902181608 | 92 | 232 | 4.3 | 9.6 | 0.00 | 0.00 | 0.00 | 62 | |
| 20260902181106 | 92 | 205 | 7.8 | 11.3 | 0.00 | 0.00 | 0.00 | 62 | |
| 20260902180601 | 92 | 231 | 9.6 | 13.0 | 0.00 | 0.00 | 0.00 | 62 | |
| 20260902180057 | 92 | 262 | 7.8 | 15.6 | 0.00 | 0.00 | 0.00 | 61 | |
| 20260902175557 | 92 | 245 | 4.3 | 9.6 | 0.00 | 0.00 | 0.00 | 64 | |
| 20260902175053 | 92 | 241 | 5.2 | 9.6 | 0.00 | 0.00 | 0.00 | 64 | |
| 20260902174549 | 92 | 295 | 9.6 | 15.6 | 0.00 | 0.00 | 0.00 | 61 | |
| 20260902174044 | 92 | 231 | 11.3 | 13.9 | 0.00 | 0.00 | 0.00 | 60 | |
| 20260902173544 | 93 | 232 | 8.7 | 9.6 | 0.00 | 0.00 | 0.00 | 63 | |
| 20260902173038 | 92 | 230 | 7.8 | 13.0 | 0.00 | 0.00 | 0.00 | 63 | |
| 20260902172533 | 92 | 229 | 8.7 | 13.0 | 0.00 | 0.00 | 0.00 | 65 | |
| 20260902172028 | 92 | 231 | 7.0 | 7.8 | 0.00 | 0.00 | 0.00 | 66 | |
| 20260902171524 | 92 | 234 | 6.1 | 13.0 | 0.00 | 0.00 | 0.00 | 64 | |
| 20260902171020 | 92 | 232 | 7.0 | 11.3 | 0.00 | 0.00 | 0.00 | 65 | |
| 20260902170514 | 91 | 264 | 8.7 | 17.4 | 0.00 | 0.00 | 0.00 | 64 | |
| 20260902170010 | 91 | 245 | 7.8 | 11.3 | 0.00 | 0.00 | 0.00 | 66 | |
| 20260902165509 | 91 | 235 | 7.8 | 9.6 | 0.00 | 0.00 | 0.00 | 67 | |
| 20260902165004 | 91 | 224 | 11.3 | 13.9 | 0.00 | 0.00 | 0.00 | 66 | |
| 20260902164459 | 91 | 224 | 11.3 | 13.9 | 0.00 | 0.00 | 0.00 | 66 | |
| 20260902163958 | 90 | 246 | 5.2 | 6.1 | 0.00 | 0.00 | 0.00 | 71 | |
| 20260902163454 | 90 | 246 | 5.2 | 6.1 | 0.00 | 0.00 | 0.00 | 71 | |
| 20260902162951 | 90 | 246 | 5.2 | 6.1 | 0.00 | 0.00 | 0.00 | 71 | |
| 20260902162446 | 90 | 246 | 5.2 | 6.1 | 0.00 | 0.00 | 0.00 | 71 | |
| 20260902161941 | 89 | 234 | 13.0 | 17.4 | 0.00 | 0.00 | 0.00 | 70 | |
| 20260902161436 | 89 | 234 | 13.0 | 17.4 | 0.00 | 0.00 | 0.00 | 70 | |
| 20260902160932 | 89 | 234 | 13.0 | 17.4 | 0.00 | 0.00 | 0.00 | 70 | |
| 20260902160427 | 89 | 237 | 7.0 | 7.8 | 0.00 | 0.00 | 0.00 | 71 | |
| 20260902155925 | 88 | 272 | 7.8 | 9.6 | 0.00 | 0.00 | 0.00 | 75 | |
| 20260902155421 | 88 | 225 | 7.8 | 7.8 | 0.00 | 0.00 | 0.00 | 75 | |
| 20260902154914 | 87 | 228 | 4.3 | 6.1 | 0.00 | 0.00 | 0.00 | 77 | |
| 20260902154410 | 87 | 226 | 5.2 | 6.1 | 0.00 | 0.00 | 0.00 | 77 | |
| 20260902153909 | 87 | 253 | 6.1 | 7.8 | 0.00 | 0.00 | 0.00 | 75 | |
| 20260902153408 | 86 | 219 | 6.1 | 7.8 | 0.00 | 0.00 | 0.00 | 78 | |
| 20260902152904 | 87 | 247 | 6.1 | 6.1 | 0.00 | 0.00 | 0.00 | 77 | |
| 20260902152400 | 87 | 247 | 6.1 | 6.1 | 0.00 | 0.00 | 0.00 | 77 | |
| 20260902151856 | 87 | 213 | 4.3 | 4.3 | 0.00 | 0.00 | 0.00 | 77 | |
| 20260902151351 | 87 | 238 | 5.2 | 7.8 | 0.00 | 0.00 | 0.00 | 76 | |
| 20260902150851 | 87 | 230 | 6.1 | 7.8 | 0.00 | 0.00 | 0.00 | 77 | |
| 20260902150347 | 86 | 251 | 5.2 | 6.1 | 0.00 | 0.00 | 0.00 | 78 | |
| 20260902145846 | 86 | 218 | 9.6 | 13.0 | 0.00 | 0.00 | 0.00 | 78 | |
| 20260902145342 | 86 | 244 | 5.2 | 6.1 | 0.00 | 0.00 | 0.00 | 80 | |
| 20260902144837 | 85 | 255 | 4.3 | 4.3 | 0.00 | 0.00 | 0.00 | 79 | |
| 20260902144333 | 85 | 242 | 3.5 | 4.3 | 0.00 | 0.00 | 0.00 | 81 | |
| 20260902143828 | 85 | 239 | 8.7 | 9.6 | 0.00 | 0.00 | 0.00 | 79 | |
| 20260902143328 | 85 | 244 | 7.8 | 13.0 | 0.00 | 0.00 | 0.00 | 79 | |
| 20260902142824 | 85 | 248 | 6.1 | 7.8 | 0.00 | 0.00 | 0.00 | 81 | |
| 20260902142320 | 84 | 239 | 5.2 | 6.1 | 0.00 | 0.00 | 0.00 | 81 | |
| 20260902141815 | 84 | 222 | 6.1 | 6.1 | 0.00 | 0.00 | 0.00 | 82 | |
| 20260902141310 | 84 | 232 | 4.3 | 6.1 | 0.00 | 0.00 | 0.00 | 83 | |
| 20260902140804 | 83 | 244 | 3.5 | 6.1 | 0.00 | 0.00 | 0.00 | 85 | |
| 20260902140259 | 83 | 237 | 5.2 | 6.1 | 0.00 | 0.00 | 0.00 | 85 | |
| 20260902135758 | 83 | 241 | 4.3 | 4.3 | 0.00 | 0.00 | 0.00 | 85 | |
| 20260902135254 | 83 | 258 | 4.3 | 4.3 | 0.00 | 0.00 | 0.00 | 85 | |
| 20260902134754 | 82 | 238 | 4.3 | 4.3 | 0.00 | 0.00 | 0.00 | 86 | |
| 20260902134249 | 82 | 231 | 1.7 | 3.5 | 0.00 | 0.00 | 0.00 | 87 | |
| 20260902133745 | 82 | 241 | 6.1 | 7.8 | 0.00 | 0.00 | 0.00 | 87 | |
| 20260902133244 | 81 | 237 | 3.5 | 4.3 | 0.00 | 0.00 | 0.00 | 89 | |
| 20260902132739 | 81 | 241 | 3.5 | 6.1 | 0.00 | 0.00 | 0.00 | 90 | |
| 20260902132235 | 80 | 249 | 2.6 | 3.5 | 0.00 | 0.00 | 0.00 | 90 | |
| 20260902131730 | 80 | 253 | 3.5 | 4.3 | 0.00 | 0.00 | 0.00 | 91 | |
| 20260902131227 | 79 | 232 | 4.3 | 4.3 | 0.00 | 0.00 | 0.00 | 91 | |
| 20260902130726 | 79 | 233 | 4.3 | 6.1 | 0.00 | 0.00 | 0.00 | 92 | |
| 20260902130222 | 78 | 247 | 4.3 | 6.1 | 0.00 | 0.00 | 0.00 | 93 | |
| 20260902125717 | 78 | 240 | 3.5 | 4.3 | 0.00 | 0.00 | 0.00 | 95 | |
| 20260902125213 | 77 | 265 | 4.3 | 4.3 | 0.00 | 0.00 | 0.00 | 97 | |
| 20260902124709 | 76 | 244 | 3.5 | 4.3 | 0.00 | 0.00 | 0.00 | 99 | |
| 20260902124210 | 75 | 244 | 1.7 | 3.5 | 0.00 | 0.00 | 0.00 | 99 | |
| 20260902123705 | 75 | 245 | 1.7 | 1.7 | 0.00 | 0.00 | 0.00 | 99 | |
| 20260902123201 | 74 | 233 | 0.9 | 1.7 | 0.00 | 0.00 | 0.00 | 99 | |
| 20260902122700 | 74 | 239 | 0.0 | 1.7 | 0.00 | 0.00 | 0.00 | 99 | |
| 20260902122156 | 74 | 237 | 0.9 | 1.7 | 0.00 | 0.00 | 0.00 | 99 | |
| 20260902121651 | 73 | 213 | 1.7 | 1.7 | 0.00 | 0.00 | 0.00 | 99 | |
| 20260902121150 | 73 | 233 | 0.9 | 1.7 | 0.00 | 0.00 | 0.00 | 99 | |
| 20260902120647 | 73 | 239 | 0.0 | 1.7 | 0.00 | 0.00 | 0.00 | 99 | |
| 20260902120143 | 73 | 237 | 0.0 | 1.7 | 0.00 | 0.00 | 0.00 | 99 | |
| 20260902115637 | 73 | 234 | 0.0 | 1.7 | 0.00 | 0.00 | 0.00 | 99 | |
| 20260902115134 | 73 | 232 | 0.0 | 0.0 | 0.00 | 0.00 | 0.00 | 99 | |
| 20260902114629 | 73 | 237 | 0.0 | 0.0 | 0.00 | 0.00 | 0.00 | 99 | |
| 20260902114129 | 73 | 236 | 0.0 | 0.0 | 0.00 | 0.00 | 0.00 | 99 | |
| 20260902113625 | 72 | 236 | 0.0 | 0.0 | 0.00 | 0.00 | 0.00 | 99 | |
| 20260902113120 | 72 | 236 | 0.0 | 0.0 | 0.00 | 0.00 | 0.00 | 99 | |
| 20260902112615 | 72 | 236 | 0.0 | 0.0 | 0.00 | 0.00 | 0.00 | 99 | |
| 20260902112112 | 72 | 236 | 0.0 | 0.0 | 0.00 | 0.00 | 0.00 | 99 | |
| 20260902111608 | 72 | 235 | 0.0 | 0.0 | 0.00 | 0.00 | 0.00 | 99 | |
| 20260902111103 | 72 | 235 | 0.0 | 0.0 | 0.00 | 0.00 | 0.00 | 99 | |
| 20260902110559 | 72 | 235 | 0.0 | 0.0 | 0.00 | 0.00 | 0.00 | 99 | |
| 20260902110055 | 72 | 235 | 0.0 | 0.0 | 0.00 | 0.00 | 0.00 | 99 | |
| 20260902105555 | 72 | 236 | 0.0 | 0.0 | 0.00 | 0.00 | 0.00 | 99 | |
| 20260902105054 | 72 | 236 | 0.0 | 0.0 | 0.00 | 0.00 | 0.00 | 99 | |
| 20260902104551 | 72 | 236 | 0.0 | 0.0 | 0.00 | 0.00 | 0.00 | 99 | |
| 20260902104050 | 72 | 236 | 0.0 | 0.0 | 0.00 | 0.00 | 0.00 | 99 | |
| 20260902103540 | 72 | 235 | 0.0 | 0.0 | 0.00 | 0.00 | 0.00 | 99 | |
| 20260902103035 | 72 | 235 | 0.0 | 0.0 | 0.00 | 0.00 | 0.00 | 99 | |
| 20260902102532 | 72 | 236 | 0.0 | 1.7 | 0.00 | 0.00 | 0.00 | 99 | |
| 20260902102029 | 72 | 237 | 0.0 | 0.0 | 0.00 | 0.00 | 0.00 | 99 | |
| 20260902101524 | 73 | 234 | 0.0 | 3.5 | 0.00 | 0.00 | 0.00 | 99 | |
| 20260902101022 | 73 | 234 | 0.0 | 0.0 | 0.00 | 0.00 | 0.00 | 99 | |
| 20260902100518 | 72 | 236 | 0.0 | 0.0 | 0.00 | 0.00 | 0.00 | 99 | |
| 20260902100017 | 73 | 236 | 0.0 | 0.0 | 0.00 | 0.00 | 0.00 | 99 | |
| 20260902095517 | 73 | 235 | 0.0 | 0.0 | 0.00 | 0.00 | 0.00 | 99 | |
| 20260902095016 | 73 | 237 | 0.0 | 0.0 | 0.00 | 0.00 | 0.00 | 99 | |
| 20260902094512 | 73 | 237 | 0.0 | 0.0 | 0.00 | 0.00 | 0.00 | 99 | |
| 20260902094007 | 73 | 237 | 0.0 | 0.0 | 0.00 | 0.00 | 0.00 | 99 | |
| 20260902093502 | 73 | 238 | 0.0 | 0.0 | 0.00 | 0.00 | 0.00 | 99 | |
| 20260902093001 | 73 | 242 | 0.0 | 0.0 | 0.00 | 0.00 | 0.00 | 99 | |
| 20260902092457 | 73 | 244 | 0.0 | 0.0 | 0.00 | 0.00 | 0.00 | 99 | |
| 20260902091956 | 73 | 235 | 0.0 | 0.0 | 0.00 | 0.00 | 0.00 | 99 | |
| 20260902091452 | 73 | 235 | 0.0 | 0.0 | 0.00 | 0.00 | 0.00 | 99 | |
| 20260902090948 | 74 | 235 | 0.0 | 0.0 | 0.00 | 0.00 | 0.00 | 99 | |
| 20260902090443 | 74 | 235 | 0.0 | 0.0 | 0.00 | 0.00 | 0.00 | 99 | |
| 20260902085942 | 74 | 235 | 0.0 | 0.0 | 0.00 | 0.00 | 0.00 | 99 | |
| 20260902085437 | 74 | 235 | 0.0 | 0.0 | 0.00 | 0.00 | 0.00 | 99 | |
| 20260902084933 | 74 | 235 | 0.0 | 0.0 | 0.00 | 0.00 | 0.00 | 99 | |
| 20260902084429 | 75 | 235 | 0.0 | 0.0 | 0.00 | 0.00 | 0.00 | 99 | |
| 20260902083924 | 75 | 234 | 0.0 | 0.0 | 0.00 | 0.00 | 0.00 | 99 | |
| 20260902083419 | 75 | 233 | 0.0 | 0.0 | 0.00 | 0.00 | 0.00 | 99 | |
| 20260902082919 | 75 | 241 | 0.0 | 0.0 | 0.00 | 0.00 | 0.00 | 99 | |
| 20260902082414 | 75 | 243 | 0.0 | 0.0 | 0.00 | 0.00 | 0.00 | 99 | |
| 20260902081911 | 75 | 243 | 0.0 | 0.0 | 0.00 | 0.00 | 0.00 | 99 | |
| 20260902081407 | 75 | 243 | 0.0 | 0.0 | 0.00 | 0.00 | 0.00 | 99 | |
| 20260902080903 | 75 | 243 | 0.0 | 0.0 | 0.00 | 0.00 | 0.00 | 99 | |
| 20260902080359 | 75 | 244 | 0.0 | 0.0 | 0.00 | 0.00 | 0.00 | 99 | |
| 20260902075858 | 75 | 244 | 0.0 | 0.0 | 0.00 | 0.00 | 0.00 | 99 | |
| 20260902075354 | 75 | 244 | 0.0 | 0.0 | 0.00 | 0.00 | 0.00 | 99 | |
| 20260902074849 | 76 | 244 | 0.0 | 0.0 | 0.00 | 0.00 | 0.00 | 99 | |
| 20260902074345 | 76 | 244 | 0.0 | 0.0 | 0.00 | 0.00 | 0.00 | 99 | |
| 20260902073839 | 76 | 244 | 0.0 | 0.0 | 0.00 | 0.00 | 0.00 | 99 | |
| 20260902073336 | 77 | 243 | 0.0 | 1.7 | 0.00 | 0.00 | 0.00 | 99 | |
| 20260902072832 | 77 | 249 | 0.9 | 1.7 | 0.00 | 0.00 | 0.00 | 99 | |
| 20260902072326 | 77 | 247 | 1.7 | 3.5 | 0.00 | 0.00 | 0.00 | 99 | |
| 20260902071824 | 77 | 250 | 2.6 | 6.1 | 0.00 | 0.00 | 0.00 | 99 | |
| 20260902071318 | 77 | 248 | 0.9 | 1.7 | 0.00 | 0.00 | 0.00 | 99 | |
| 20260902070815 | 77 | 242 | 0.0 | 0.0 | 0.00 | 0.00 | 0.00 | 99 | |
| 20260902070314 | 77 | 243 | 1.7 | 3.5 | 0.00 | 0.00 | 0.00 | 99 | |
| 20260902065813 | 77 | 242 | 0.0 | 0.0 | 0.00 | 0.00 | 0.00 | 99 | |
| 20260902065308 | 77 | 243 | 0.0 | 0.0 | 0.00 | 0.00 | 0.00 | 99 | |
| 20260902064804 | 78 | 243 | 0.0 | 0.0 | 0.00 | 0.00 | 0.00 | 99 | |
| 20260902064300 | 78 | 233 | 1.7 | 1.7 | 0.00 | 0.00 | 0.00 | 99 | |
| 20260902063755 | 78 | 249 | 1.7 | 3.5 | 0.00 | 0.00 | 0.00 | 99 | |
| 20260902063249 | 78 | 242 | 0.9 | 1.7 | 0.00 | 0.00 | 0.00 | 99 | |
| 20260902062749 | 78 | 240 | 1.7 | 4.3 | 0.00 | 0.00 | 0.00 | 99 | |
| 20260902062244 | 78 | 240 | 1.7 | 3.5 | 0.00 | 0.00 | 0.00 | 99 | |
| 20260902061743 | 78 | 227 | 2.6 | 3.5 | 0.00 | 0.00 | 0.00 | 99 | |
| 20260902061238 | 79 | 226 | 2.6 | 4.3 | 0.00 | 0.00 | 0.00 | 99 | |
| 20260902060735 | 79 | 228 | 2.6 | 4.3 | 0.00 | 0.00 | 0.00 | 98 | |
| 20260902060231 | 79 | 238 | 1.7 | 4.3 | 0.00 | 0.00 | 0.00 | 98 | |
| 20260902055726 | 79 | 243 | 1.7 | 4.3 | 0.00 | 0.00 | 0.00 | 98 | |
| 20260902055222 | 79 | 243 | 2.6 | 4.3 | 0.00 | 0.00 | 0.00 | 98 | |
| 20260902054717 | 79 | 234 | 1.7 | 4.3 | 0.00 | 0.00 | 0.00 | 98 | |
| 20260902054213 | 79 | 240 | 2.6 | 4.3 | 0.00 | 0.00 | 0.00 | 99 | |
| 20260902053708 | 79 | 245 | 3.5 | 4.3 | 0.00 | 0.00 | 0.00 | 99 | |
| 20260902053208 | 79 | 248 | 6.1 | 7.8 | 0.00 | 0.00 | 0.00 | 99 | |
| 20260902052707 | 79 | 244 | 2.6 | 3.5 | 0.00 | 0.00 | 0.00 | 99 | |
| 20260902052203 | 79 | 255 | 1.7 | 3.5 | 0.00 | 0.00 | 0.00 | 99 | |
| 20260902051702 | 78 | 232 | 3.5 | 4.3 | 0.00 | 0.00 | 0.00 | 99 | |
| 20260902051156 | 78 | 244 | 2.6 | 3.5 | 0.00 | 0.00 | 0.00 | 99 | |
| 20260902050651 | 78 | 242 | 0.0 | 3.5 | 0.00 | 0.00 | 0.00 | 99 | |
| 20260902050147 | 79 | 235 | 3.5 | 3.5 | 0.00 | 0.00 | 0.00 | 99 | |
| 20260902045641 | 79 | 227 | 2.6 | 6.1 | 0.00 | 0.00 | 0.00 | 99 | |
| 20260902045137 | 79 | 233 | 2.6 | 3.5 | 0.00 | 0.00 | 0.00 | 99 | |
| 20260902044632 | 79 | 245 | 3.5 | 4.3 | 0.00 | 0.00 | 0.00 | 99 | |
| 20260902044128 | 79 | 243 | 2.6 | 3.5 | 0.00 | 0.00 | 0.00 | 99 | |
| 20260902043622 | 79 | 250 | 3.5 | 6.1 | 0.00 | 0.00 | 0.00 | 99 | |
| 20260902043118 | 79 | 236 | 3.5 | 4.3 | 0.00 | 0.00 | 0.00 | 99 | |
| 20260902042612 | 78 | 235 | 6.1 | 7.8 | 0.00 | 0.00 | 0.00 | 99 | |
| 20260902042108 | 78 | 242 | 4.3 | 6.1 | 0.00 | 0.00 | 0.00 | 99 | |
| 20260902041607 | 78 | 222 | 5.2 | 6.1 | 0.00 | 0.00 | 0.00 | 99 | |
| 20260902041102 | 78 | 245 | 4.3 | 4.3 | 0.00 | 0.00 | 0.00 | 99 | |
| 20260902040601 | 78 | 235 | 3.5 | 4.3 | 0.00 | 0.00 | 0.00 | 99 | |
| 20260902040056 | 78 | 232 | 2.6 | 4.3 | 0.00 | 0.00 | 0.00 | 99 | |
| 20260902035555 | 77 | 232 | 3.5 | 4.3 | 0.00 | 0.24 | 0.24 | 99 | |
| 20260902035050 | 77 | 247 | 3.5 | 6.1 | 0.00 | 0.24 | 0.24 | 99 | |
| 20260902034550 | 77 | 241 | 2.6 | 4.3 | 0.00 | 0.24 | 0.24 | 99 | |
| 20260902034049 | 77 | 246 | 3.5 | 6.1 | 0.00 | 0.24 | 0.24 | 99 | |
| 20260902033548 | 77 | 226 | 2.6 | 6.1 | 0.00 | 0.24 | 0.24 | 99 | |
| 20260902033043 | 77 | 232 | 2.6 | 6.1 | 0.05 | 0.24 | 0.24 | 99 | |
| 20260902032542 | 77 | 231 | 3.5 | 4.3 | 0.05 | 0.24 | 0.24 | 99 | |
| 20260902032037 | 77 | 236 | 3.5 | 3.5 | 0.00 | 0.23 | 0.23 | 99 | |
| 20260902031532 | 77 | 240 | 2.6 | 4.3 | 0.00 | 0.23 | 0.23 | 99 | |
| 20260902031028 | 77 | 231 | 3.5 | 3.5 | 0.00 | 0.23 | 0.23 | 99 | |
| 20260902030523 | 77 | 239 | 1.7 | 3.5 | 0.00 | 0.23 | 0.23 | 99 | |
| 20260902030022 | 77 | 230 | 2.6 | 4.3 | 0.00 | 0.23 | 0.23 | 99 |